Wetbulb
53.52 50.35 48.67 50.48 52.95 53.64 52.73 50.76 49.46 49.44 51.47 51.69 50.49 49.96 52.19 54.35 51.05 50.47 49.23 49.68 50.06 53.04 55.34 55.82 54.91 53.69 51.66 50.75 50.14 49.84 49.45 48.24 48.48 47.49 47.56 47.31 47.30 48.15 48.41 49.36 49.25 48.93 48.76 48.99
50.20 47.89 53.51 55.17 54.10 52.96 52.60 50.62 49.63 50.15 48.82 48.13 48.84 49.07 52.51 53.61 50.98 49.81 49.34 48.75 49.87 50.05 52.67 52.71 52.79 51.61 50.23 49.66 49.67 49.51 49.31 48.75 49.20 48.98 48.92 49.00 48.49 49.19 49.39 50.32 49.26 49.28 48.80 48.54
48.28 51.09 54.90 53.88 53.36 51.77 51.42 48.93 49.30 47.94 47.79 49.93 47.90 43.70 46.73 48.98 49.71 50.27 49.43 49.67 50.20 50.27 50.67 51.42 50.59 50.12 49.85 48.99 49.25 49.34 49.04 49.16 49.46 49.85 49.71 49.38 49.47 48.96 48.28 48.22 48.59 49.53 49.32 48.27
50.42 52.86 52.38 53.57 51.25 51.64 47.25 52.18 51.46 49.65 45.06 40.94 45.29 35.53 43.20 45.89 46.78 47.48 47.81 48.44 49.12 50.06 51.24 51.90 50.72 49.56 49.32 49.60 50.06 50.07 49.88 49.31 49.91 50.24 49.08 48.21 47.59 46.42 48.34 48.76 49.33 49.09 48.63 47.64
49.27 48.79 50.08 49.63 50.81 52.93 48.40 50.75 49.34 49.16 44.30 41.67 41.64 36.86 40.11 44.96 44.43 44.44 46.33 47.67 47.72 49.63 50.81 50.52 49.97 50.25 50.33 50.40 49.88 49.91 49.50 49.20 49.35 49.16 49.38 48.69 48.04 48.66 49.25 48.32 47.35 47.05 47.23 47.39
48.93 52.00 51.71 51.30 49.50 49.71 49.99 47.65 46.80 45.76 42.09 34.40 40.62 39.09 37.86 40.15 41.13 43.56 45.70 46.37 47.33 47.66 49.01 50.22 50.43 50.59 50.08 50.72 50.72 50.11 49.28 49.01 49.18 48.97 48.58 48.41 47.65 47.70 47.22 47.43 45.97 45.92 45.86 45.92
46.00 46.73 49.37 50.95 46.73 49.50 47.93 43.27 36.44 34.44 33.42 33.54 41.37 38.50 37.93 41.59 43.65 44.82 44.78 44.90 46.26 47.00 48.27 48.12 48.16 48.13 48.85 49.00 49.32 50.09 49.52 48.84 48.78 48.07 48.30 48.07 48.23 47.53 46.05 45.35 44.24 43.77 43.44 43.52
40.90 37.89 45.82 49.65 47.29 44.47 44.33 43.07 36.77 30.96 32.48 35.41 41.66 34.92 36.30 43.50 45.59 46.31 46.67 46.10 46.50 46.74 47.54 47.73 47.81 47.53 47.32 48.54 48.77 49.20 48.53 47.97 48.52 48.01 47.63 47.58 46.94 45.54 44.84 44.03 43.60 42.91 42.68 43.02
41.60 39.65 45.72 46.86 47.97 46.19 44.01 39.41 44.45 38.46 38.21 33.52 37.55 38.06 40.50 43.52 43.99 44.99 44.63 45.11 44.98 45.66 45.85 46.16 46.67 46.74 46.70 46.46 46.56 46.94 47.32 47.51 47.28 46.80 46.39 45.09 44.23 44.13 43.60 43.34 42.90 42.92 43.27 44.82
43.84 37.45 44.85 44.90 47.08 47.02 44.86 45.57 38.23 38.17 30.85 29.12 35.99 35.79 35.47 38.85 40.76 43.16 42.59 42.36 43.77 44.97 44.79 44.90 45.03 45.28 45.18 45.30 45.30 45.42 45.58 45.03 45.11 44.71 44.14 44.22 43.62 43.83 43.38 42.71 42.20 42.23 42.21 42.32
44.75 42.48 39.93 43.85 42.36 42.30 41.54 40.51 40.84 39.62 37.91 30.97 29.43 32.13 40.67 40.68 41.75 41.51 41.95 43.28 43.83 44.01 43.93 43.88 44.03 44.78 45.24 45.08 44.44 44.13 44.09 43.98 43.74 44.03 43.60 42.79 42.71 42.87 42.47 41.95 42.09 41.90 41.46 40.80
44.75 41.95 37.55 39.48 42.19 43.84 43.15 42.13 41.93 34.98 33.68 35.35 32.50 31.56 42.47 42.45 43.06 43.46 42.81 44.39 44.18 44.67 44.53 44.32 44.42 44.25 44.18 44.20 44.25 43.61 43.37 42.90 43.24 43.47 42.42 42.10 42.41 42.28 41.25 41.06 40.96 40.87 39.31 39.51
42.75 40.19 34.18 35.03 38.28 40.52 39.20 42.08 42.62 40.72 38.30 33.52 29.13 31.89 42.29 41.83 41.70 42.78 42.29 42.98 43.75 44.37 44.41 44.38 44.01 43.34 43.02 42.75 42.79 42.93 43.16 42.83 43.13 42.73 41.44 41.39 41.21 41.00 40.40 39.80 39.51 39.01 38.40 38.00
43.42 41.29 38.21 33.88 37.34 40.37 37.15 39.83 40.55 38.59 32.22 33.78 34.47 35.71 38.40 40.12 40.84 41.44 42.10 43.15 43.06 43.94 44.48 43.88 42.75 41.79 41.55 41.63 41.70 42.05 42.23 42.76 42.58 42.09 40.76 40.12 40.32 40.07 39.11 38.84 38.42 38.38 38.47 37.91
42.09 38.31 38.74 38.74 39.68 39.68 39.33 39.82 39.31 37.14 37.49 33.01 36.73 37.38 39.66 40.71 40.95 41.71 42.99 43.63 43.24 43.54 44.20 42.90 41.57 40.48 40.31 40.44 40.84 41.40 41.55 41.85 41.53 40.72 40.23 39.96 39.88 39.08 38.30 37.87 38.00 37.97 37.67 37.88
41.96 37.79 38.38 36.99 39.76 39.47 37.99 39.78 39.49 39.57 39.32 38.27 38.43 36.85 41.76 42.15 41.75 41.37 41.63 42.81 42.04 41.88 42.54 42.34 41.79 41.02 40.72 40.04 40.03 40.62 40.64 40.73 40.75 39.72 39.49 39.85 38.72 38.20 37.67 37.48 37.14 36.48 36.26 36.33
39.60 38.41 36.65 34.00 39.68 39.29 35.23 39.28 40.20 40.29 40.54 38.79 34.28 37.98 41.13 39.60 41.29 40.36 40.44 42.53 42.20 41.39 41.02 40.45 40.06 40.15 40.23 40.27 40.91 39.24 39.53 40.18 39.39 39.10 38.73 38.11 38.07 37.53 37.12 36.79 36.28 35.32 35.04 35.19
39.95 39.34 38.21 34.26 36.71 27.41 36.87 40.93 41.49 41.46 41.54 41.12 40.94 41.27 41.35 40.90 41.08 41.58 43.04 41.76 40.47 40.71 40.30 39.78 39.46 39.67 40.13 40.53 40.45 39.94 39.93 39.08 39.02 37.76 37.26 37.65 37.08 36.27 36.20 35.62 35.02 34.48 34.87 34.91
41.53 40.55 35.36 32.60 31.64 36.82 36.30 38.53 38.28 36.43 37.09 41.95 40.15 41.67 41.73 42.62 41.05 38.63 42.04 41.47 40.07 39.30 39.14 39.08 39.57 39.91 39.42 39.60 40.08 39.32 38.74 38.61 38.02 37.02 36.53 36.69 36.40 35.51 35.47 34.94 33.95 34.07 34.87 33.78
41.36 40.34 36.56 33.22 29.95 26.47 36.11 39.50 42.31 40.96 30.11 41.19 41.78 41.26 40.71 40.68 32.28 34.74 40.50 40.97 40.11 40.14 40.41 39.73 39.96 40.17 39.13 39.43 39.47 38.35 37.73 37.09 36.46 36.89 37.03 36.89 36.41 35.72 35.38 34.31 33.50 34.52 34.12 35.41
35.32 34.94 31.77 32.63 30.86 34.92 39.27 40.69 42.17 28.80 33.34 41.46 41.69 41.39 41.09 37.73 37.46 39.01 40.52 39.94 40.12 39.75 39.71 39.94 39.36 38.60 38.96 39.60 39.29 37.63 37.03 36.05 37.60 38.08 37.63 36.89 36.38 35.79 35.19 33.81 34.44 33.79 34.71 36.32
35.18 33.68 31.37 32.48 29.28 26.97 41.44 39.64 34.86 39.70 40.77 42.38 40.69 41.60 41.59 39.97 40.09 39.80 39.82 39.15 39.42 38.71 39.50 39.82 38.37 38.37 39.18 39.62 38.67 37.38 36.13 38.28 38.02 37.56 36.92 36.10 35.71 36.41 37.32 33.12 33.17 33.78 35.27 35.89
33.17 38.29 35.81 36.89 36.09 41.26 41.87 40.99 42.47 43.44 42.35 40.61 41.32 41.45 42.13 40.13 39.02 39.17 38.47 37.59 38.44 38.08 39.13 39.81 38.43 38.41 38.86 39.07 38.67 36.86 37.68 38.61 37.57 36.21 35.15 35.06 35.54 35.54 34.36 32.64 32.80 33.71 35.21 35.90
38.63 40.86 36.06 36.28 39.38 40.02 41.93 42.56 43.42 42.66 41.79 43.16 43.24 41.69 41.16 38.56 38.69 37.91 38.32 38.22 38.25 38.96 38.86 39.68 38.94 38.14 37.77 39.02 39.52 38.62 38.80 38.43 36.72 34.88 34.30 34.60 34.22 34.73 32.73 33.83 34.45 34.24 35.52 35.98
38.56 39.21 37.26 36.65 39.25 40.05 41.23 42.42 43.28 43.07 42.92 42.51 42.54 41.35 39.87 39.30 38.56 37.98 38.05 38.49 38.86 39.06 39.55 39.57 38.55 38.25 38.44 39.08 38.81 38.93 39.07 37.72 35.64 34.51 34.28 34.64 34.34 32.52 31.41 33.38 34.38 36.41 37.68 37.66
40.42 38.60 35.20 34.87 40.44 40.56 40.01 43.28 44.19 41.94 41.51 41.42 40.08 38.99 39.85 39.11 38.53 38.72 38.27 39.00 39.08 38.67 39.37 38.86 38.84 38.65 38.60 38.87 38.55 38.77 39.05 37.49 35.40 34.07 34.50 34.37 33.21 31.57 32.76 33.53 35.11 38.97 39.19 39.73
MSLP
1006.38 1006.36 1005.64 1005.95 1006.24 1006.28 1006.06 1006.75 1007.73 1008.67 1009.17 1010.03 1010.16 1010.24 1010.10 1009.71 1009.56 1009.31 1009.48 1009.58 1009.61 1009.85 1010.30 1011.27 1012.04 1012.90 1013.68 1014.33 1015.01 1015.59 1016.13 1016.45 1016.94 1017.51 1018.03 1018.40 1018.72 1018.61 1018.77 1018.83 1018.87 1019.10 1019.38 1019.56
1006.48 1005.76 1005.38 1005.41 1005.26 1005.48 1005.54 1006.14 1007.39 1008.87 1009.70 1009.75 1010.02 1010.21 1009.91 1009.62 1009.57 1009.80 1009.79 1009.88 1009.88 1009.91 1010.32 1011.29 1012.30 1013.08 1013.90 1014.55 1015.04 1015.49 1015.99 1016.36 1016.90 1017.41 1017.71 1017.93 1018.14 1018.27 1018.41 1018.69 1018.96 1019.15 1019.34 1019.54
1005.69 1005.31 1004.93 1004.71 1004.55 1004.99 1005.48 1006.04 1006.63 1007.88 1008.97 1009.44 1009.85 1009.96 1009.24 1008.56 1009.13 1009.68 1010.00 1010.30 1010.44 1010.40 1010.41 1011.25 1012.24 1013.24 1013.94 1014.60 1014.98 1015.37 1015.74 1016.26 1016.82 1017.26 1017.51 1017.71 1018.06 1018.40 1018.72 1018.90 1019.01 1019.07 1019.16 1019.38
1005.11 1005.19 1004.65 1004.77 1004.94 1005.44 1005.65 1006.14 1006.92 1007.61 1008.85 1009.43 1009.62 1009.71 1008.77 1008.75 1009.63 1009.96 1010.69 1010.96 1011.01 1010.66 1010.49 1010.93 1011.98 1013.04 1014.03 1014.61 1014.93 1015.16 1015.52 1016.05 1016.58 1017.04 1017.46 1018.02 1018.48 1018.85 1018.80 1018.66 1018.75 1018.92 1018.89 1019.06
1005.19 1005.79 1005.56 1005.28 1005.56 1005.62 1006.36 1006.71 1007.44 1008.09 1008.82 1009.21 1009.83 1010.09 1009.26 1009.16 1010.01 1010.84 1011.17 1011.68 1011.79 1011.35 1011.03 1011.24 1012.04 1012.94 1013.69 1014.46 1014.98 1015.21 1015.50 1015.88 1016.30 1016.69 1017.23 1017.91 1018.41 1018.46 1018.29 1018.30 1018.46 1018.62 1018.61 1018.68
1006.09 1005.61 1006.09 1006.08 1006.48 1006.42 1007.01 1007.55 1007.96 1008.44 1009.10 1009.36 1008.92 1009.58 1009.62 1009.96 1010.61 1011.21 1011.78 1012.29 1012.25 1011.93 1011.68 1011.68 1012.26 1013.10 1013.82 1014.40 1015.00 1015.41 1015.73 1016.04 1016.20 1016.60 1017.04 1017.60 1018.08 1018.36 1018.52 1018.55 1018.60 1018.49 1018.52 1018.70
1006.66 1006.69 1007.01 1006.84 1007.33 1007.41 1007.44 1007.85 1008.58 1009.31 1009.45 1009.09 1008.61 1009.11 1010.11 1010.68 1011.14 1011.62 1012.32 1012.79 1012.78 1012.53 1012.47 1012.78 1013.34 1013.84 1014.44 1014.97 1015.31 1015.69 1016.03 1016.32 1016.29 1016.47 1016.77 1017.07 1017.51 1017.85 1018.29 1018.57 1018.66 1018.77 1018.82 1018.84
1006.88 1007.67 1007.59 1007.31 1007.32 1007.58 1007.94 1007.98 1008.05 1008.29 1008.52 1009.01 1009.51 1009.68 1010.62 1010.98 1011.58 1012.02 1012.59 1013.14 1013.40 1013.42 1013.40 1013.69 1014.06 1014.50 1014.91 1015.12 1015.48 1015.81 1016.04 1016.24 1016.35 1016.49 1016.75 1016.97 1017.34 1017.80 1018.17 1018.44 1018.59 1018.76 1018.88 1018.94
1007.12 1007.80 1008.18 1007.90 1007.84 1008.12 1008.14 1008.27 1008.40 1008.24 1008.12 1008.78 1008.99 1010.12 1010.89 1011.31 1011.83 1012.32 1013.09 1013.63 1013.93 1014.20 1014.35 1014.63 1014.80 1015.08 1015.46 1015.78 1015.94 1016.11 1016.29 1016.49 1016.66 1016.79 1016.92 1017.21 1017.49 1017.84 1018.21 1018.39 1018.56 1018.74 1018.84 1018.81
1007.35 1007.94 1008.45 1008.63 1008.50 1008.40 1008.30 1008.44 1008.66 1008.71 1008.90 1009.05 1008.51 1009.41 1010.24 1011.27 1011.94 1012.61 1013.38 1014.03 1014.35 1014.61 1014.92 1015.38 1015.67 1015.96 1016.24 1016.43 1016.60 1016.77 1016.88 1016.98 1017.09 1017.22 1017.37 1017.60 1017.81 1017.95 1018.10 1018.26 1018.48 1018.60 1018.54 1018.48
1008.10 1007.39 1009.13 1009.01 1008.75 1008.31 1008.74 1008.53 1008.66 1008.87 1009.03 1009.36 1009.54 1010.39 1010.30 1011.00 1011.68 1012.48 1013.29 1013.99 1014.44 1014.96 1015.29 1015.70 1015.95 1016.28 1016.40 1016.56 1016.80 1016.97 1017.09 1017.25 1017.43 1017.60 1017.84 1018.08 1018.23 1018.32 1018.36 1018.44 1018.40 1018.35 1018.30 1018.22
1008.91 1008.59 1008.61 1009.01 1008.97 1008.84 1008.60 1008.41 1008.47 1009.12 1009.47 1009.68 1010.18 1011.08 1010.65 1010.87 1011.53 1012.31 1013.30 1014.07 1014.70 1015.09 1015.54 1015.95 1016.10 1016.29 1016.53 1016.68 1016.81 1017.02 1017.17 1017.35 1017.50 1017.63 1017.96 1018.17 1018.15 1018.19 1018.36 1018.31 1018.28 1018.29 1018.11 1018.08
1009.94 1008.81 1008.90 1009.32 1009.50 1009.19 1008.94 1008.66 1008.77 1009.13 1009.81 1010.26 1010.74 1011.18 1011.03 1011.32 1011.90 1012.48 1013.36 1014.13 1014.88 1015.37 1015.76 1016.06 1016.22 1016.51 1016.84 1017.08 1017.00 1016.99 1017.08 1017.20 1017.20 1017.43 1017.88 1018.25 1018.34 1018.32 1018.34 1018.40 1018.29 1018.24 1018.03 1017.86
1010.28 1009.46 1009.01 1009.23 1009.01 1008.59 1008.87 1008.82 1009.20 1009.66 1010.12 1010.16 1010.37 1010.70 1011.43 1011.85 1012.29 1012.75 1013.37 1014.03 1014.72 1015.19 1015.69 1016.16 1016.67 1016.93 1017.16 1017.28 1017.23 1017.29 1017.36 1017.43 1017.47 1017.76 1018.08 1018.37 1018.39 1018.34 1018.12 1018.20 1018.25 1018.06 1017.89 1017.60
1010.45 1010.00 1009.44 1009.36 1009.34 1009.17 1009.08 1009.15 1009.45 1009.77 1009.88 1010.26 1010.22 1010.62 1011.12 1011.27 1011.75 1012.23 1012.95 1013.74 1014.42 1015.07 1015.62 1016.32 1016.98 1017.30 1017.46 1017.61 1017.52 1017.55 1017.63 1017.73 1017.85 1018.19 1018.39 1018.44 1018.17 1018.17 1018.06 1018.14 1017.97 1017.68 1017.52 1017.37
1010.60 1010.42 1010.05 1009.70 1009.79 1009.79 1009.68 1009.54 1009.54 1009.61 1009.89 1010.11 1010.41 1010.80 1010.90 1011.13 1011.45 1012.17 1012.97 1013.62 1014.50 1015.27 1015.93 1016.57 1017.08 1017.42 1017.62 1017.73 1017.75 1017.80 1017.93 1017.95 1017.85 1018.20 1018.33 1018.20 1018.10 1017.91 1018.00 1017.96 1017.66 1017.42 1017.29 1016.92
1010.80 1010.71 1010.66 1010.38 1010.37 1010.12 1009.98 1009.60 1009.49 1009.58 1009.70 1010.17 1010.74 1011.21 1011.36 1011.81 1012.10 1012.62 1013.34 1014.03 1014.84 1015.59 1016.29 1016.85 1017.27 1017.58 1017.78 1018.00 1017.93 1018.10 1018.12 1018.09 1018.19 1018.17 1018.27 1018.26 1018.04 1017.93 1017.90 1017.69 1017.50 1017.28 1017.00 1016.59
1011.10 1011.15 1011.33 1011.34 1010.96 1010.85 1010.48 1010.15 1009.84 1009.43 1009.90 1010.20 1010.96 1011.49 1011.95 1012.30 1012.70 1013.25 1013.79 1014.50 1015.37 1015.98 1016.75 1017.37 1017.66 1017.85 1017.93 1017.91 1017.89 1018.12 1018.30 1018.40 1018.37 1018.22 1018.20 1018.08 1017.97 1017.98 1017.77 1017.53 1017.37 1016.98 1016.60 1016.31
1011.56 1011.47 1011.89 1012.15 1011.83 1011.12 1011.08 1010.71 1010.50 1010.27 1010.40 1010.41 1010.99 1011.60 1012.27 1012.99 1013.52 1014.22 1014.69 1015.40 1016.20 1016.76 1017.14 1017.50 1017.78 1017.85 1017.88 1017.88 1017.99 1018.12 1018.31 1018.31 1018.24 1018.06 1018.00 1017.99 1017.92 1017.81 1017.60 1017.33 1017.01 1016.56 1016.19 1016.00
1011.98 1011.96 1012.32 1012.71 1012.80 1012.14 1011.10 1011.05 1011.02 1011.06 1011.22 1010.89 1011.06 1011.80 1012.77 1013.69 1014.65 1015.52 1015.65 1016.16 1016.67 1017.10 1017.47 1017.75 1017.92 1018.01 1017.98 1017.95 1017.97 1018.07 1018.24 1018.24 1018.12 1017.91 1017.81 1017.75 1017.68 1017.54 1017.18 1016.83 1016.52 1015.98 1015.77 1015.49
1012.00 1012.35 1012.72 1012.90 1012.89 1011.97 1011.27 1011.38 1011.52 1011.88 1011.92 1011.34 1011.60 1012.16 1012.96 1014.33 1015.12 1015.61 1016.08 1016.59 1016.99 1017.32 1017.57 1017.75 1017.87 1018.06 1018.02 1017.94 1017.88 1017.94 1017.88 1017.98 1017.75 1017.64 1017.60 1017.54 1017.33 1017.01 1016.57 1016.27 1015.95 1015.89 1015.65 1015.20
1011.46 1012.07 1012.50 1012.67 1012.63 1012.26 1011.53 1012.03 1012.09 1011.67 1011.62 1011.99 1012.37 1012.83 1013.72 1014.57 1015.39 1015.94 1016.43 1016.76 1017.09 1017.46 1017.59 1017.73 1017.92 1018.04 1017.84 1017.70 1017.60 1017.63 1017.64 1017.38 1017.36 1017.41 1017.43 1017.28 1016.91 1016.61 1016.26 1016.03 1015.96 1015.77 1015.49 1015.02
1011.21 1011.17 1011.49 1011.67 1011.65 1011.37 1011.28 1011.39 1011.58 1011.72 1012.07 1012.56 1012.98 1013.55 1014.12 1014.93 1015.69 1016.23 1016.66 1016.95 1017.14 1017.33 1017.60 1017.68 1017.88 1017.89 1017.68 1017.55 1017.40 1017.38 1017.20 1017.05 1017.10 1017.27 1017.23 1017.03 1016.59 1016.32 1015.99 1016.11 1015.96 1015.68 1015.26 1014.81
1010.81 1010.91 1011.31 1011.35 1010.60 1010.87 1011.13 1011.32 1011.78 1012.21 1012.55 1012.89 1013.32 1013.99 1014.59 1015.41 1015.96 1016.29 1016.64 1017.06 1017.26 1017.38 1017.46 1017.45 1017.51 1017.54 1017.50 1017.32 1017.13 1016.92 1016.74 1016.68 1016.92 1017.07 1016.99 1016.80 1016.50 1016.22 1016.10 1016.08 1015.85 1015.47 1015.03 1014.49
1010.74 1010.76 1010.76 1010.67 1010.39 1010.61 1010.85 1011.00 1011.51 1012.26 1012.94 1013.40 1013.97 1014.59 1015.14 1015.53 1016.04 1016.43 1016.81 1017.13 1017.28 1017.30 1017.29 1017.25 1017.34 1017.28 1017.15 1017.01 1016.90 1016.70 1016.54 1016.57 1016.83 1016.94 1016.87 1016.67 1016.36 1016.18 1016.08 1015.94 1015.59 1015.09 1014.84 1014.27
1009.90 1009.61 1009.90 1010.10 1009.75 1009.94 1010.56 1010.81 1011.51 1012.39 1013.16 1013.86 1014.44 1015.00 1015.36 1015.77 1016.28 1016.61 1017.02 1017.12 1017.19 1017.24 1017.32 1017.27 1017.10 1017.01 1016.95 1016.85 1016.73 1016.57 1016.40 1016.48 1016.73 1016.86 1016.80 1016.55 1016.35 1016.18 1016.06 1015.61 1014.95 1014.62 1014.22 1013.71
Wind_Speed
14 11 14 16 17 16 14 5 5 5 5 5 8 3 10 9 9 7 5 7 6 10 10 9 9 8 8 8 9 9 7 7 5 2 3 2 3 2 2 2 4 2 3 2
8 14 15 17 16 18 13 8 11 10 6 4 4 6 12 14 1 4 5 6 6 5 10 11 10 8 8 6 8 9 8 7 6 3 3 4 3 2 3 3 4 2 2 3
13 12 18 15 13 13 10 6 4 9 7 3 3 5 10 3 7 4 1 3 6 8 8 12 11 9 8 6 6 8 9 7 6 5 1 2 3 3 3 0 2 4 5 2
13 5 11 5 8 5 8 10 1 7 5 5 8 4 4 11 8 6 8 7 7 7 6 12 12 10 9 6 7 4 7 8 6 6 2 3 3 3 4 4 4 3 5 5
4 6 2 7 4 8 2 5 5 6 7 6 9 2 2 9 8 8 8 6 5 8 7 9 10 9 8 7 6 5 3 4 6 6 6 3 2 3 3 1 2 2 3 5
2 5 4 1 7 6 9 5 4 1 2 4 12 8 1 3 5 7 8 6 5 4 4 7 9 9 7 7 5 4 1 2 3 4 4 6 7 4 4 3 2 3 2 1
6 5 2 7 5 3 6 7 3 3 3 4 4 5 5 7 7 7 8 6 6 5 7 9 9 8 7 7 5 3 1 4 4 4 6 6 4 4 2 4 2 3 2 3
6 5 7 4 1 5 7 3 3 3 3 4 2 4 4 8 7 8 9 7 7 7 6 8 7 5 4 6 6 7 6 6 6 5 2 2 4 2 1 2 3 3 2 3
5 5 4 5 3 4 5 3 2 3 5 2 6 5 4 8 8 9 9 8 7 8 8 8 8 8 8 9 8 8 7 6 7 6 3 3 1 3 3 2 2 2 4 3
5 6 1 2 2 1 4 3 1 2 3 4 6 7 6 10 9 9 9 8 7 7 8 8 7 8 7 6 4 6 6 5 4 5 4 4 5 5 4 2 4 4 5 5
6 2 3 3 5 3 3 2 3 1 2 1 4 3 5 9 9 9 9 8 7 7 7 7 7 7 5 5 4 3 4 4 4 5 5 6 5 4 5 4 5 6 4 5
2 4 4 4 3 4 4 3 7 3 2 2 2 1 6 9 8 9 9 8 7 7 7 6 5 4 5 4 4 3 1 1 1 2 1 4 4 4 4 5 5 6 6 6
6 4 4 3 1 1 3 3 4 4 3 3 1 2 4 6 6 6 9 8 7 7 6 5 5 6 6 5 5 3 2 2 3 2 2 5 6 6 6 6 6 7 7 7
3 4 3 2 4 2 4 4 4 4 2 3 2 6 6 7 6 6 6 8 8 7 5 5 6 5 5 5 5 6 6 6 4 3 3 4 6 5 5 6 6 6 7 7
3 3 5 6 3 4 4 5 7 7 6 3 3 4 9 10 10 10 9 8 7 8 6 7 6 4 5 5 5 6 4 4 4 4 5 6 4 5 5 6 6 7 7 8
2 2 2 3 4 1 3 5 6 6 6 6 6 5 7 7 7 6 8 7 5 2 8 6 5 5 5 5 5 5 6 5 4 5 5 5 6 6 5 6 7 7 7 7
3 1 1 2 1 4 6 2 8 5 4 1 5 3 5 4 4 5 4 7 4 8 6 5 4 4 5 5 5 4 5 5 5 5 5 6 6 6 6 6 7 7 7 7
2 2 1 2 3 3 2 4 6 2 3 4 6 5 2 3 3 4 7 6 8 7 5 5 4 5 5 4 3 4 5 5 6 6 6 6 6 6 7 7 7 7 6 8
4 2 2 1 3 2 3 3 1 2 2 6 4 7 5 6 4 2 10 9 8 6 3 3 4 4 5 4 4 2 4 5 6 6 5 6 6 7 7 8 7 7 8 5
4 3 1 2 1 5 2 4 1 3 2 2 4 6 6 7 2 3 7 7 5 5 3 4 5 5 6 5 4 3 4 5 7 5 5 6 6 7 8 7 7 7 4 7
2 1 4 4 3 6 5 7 2 2 6 4 3 4 6 5 3 7 6 6 5 3 4 4 5 4 5 5 4 4 4 6 5 5 5 6 7 8 7 7 7 5 8 11
5 5 3 2 2 7 8 4 4 4 3 5 2 5 9 9 7 6 5 4 4 3 4 4 4 5 6 6 5 6 5 4 4 5 6 7 7 6 8 7 5 7 10 10
2 2 2 7 5 4 8 2 3 3 4 3 5 5 7 8 6 5 3 3 2 2 3 3 3 5 6 6 5 5 5 4 4 5 7 7 7 6 5 6 8 9 9 9
3 4 1 4 3 7 7 5 7 3 3 6 7 7 6 6 6 4 3 2 2 2 3 3 4 5 5 5 6 5 5 3 4 6 7 6 6 8 5 4 7 7 8 8
2 6 6 5 6 4 5 7 9 8 5 7 7 6 5 7 5 4 2 3 3 4 4 4 5 5 6 5 6 6 4 3 4 5 6 7 5 5 4 6 7 7 7 11
6 7 5 5 1 5 3 7 7 9 7 7 6 6 5 4 4 4 2 2 4 4 5 6 6 5 6 6 6 5 4 3 4 5 5 5 4 4 6 8 8 13 16 19
Wind_Direction
198 205 204 192 203 226 220 186 220 119 122 163 198 242 311 304 221 215 238 294 291 172 163 147 125 122 124 134 138 153 150 150 133 150 127 159 182 182 157 135 135 116 91 147
184 210 207 219 209 218 237 209 185 88 177 145 146 231 242 263 106 52 11 335 290 267 144 135 135 140 143 160 160 152 168 160 145 158 176 179 183 193 165 149 137 161 181 250
191 204 234 213 214 208 223 253 202 162 155 214 124 294 251 140 125 134 170 36 308 307 179 147 146 151 153 174 172 161 157 158 153 173 185 42 54 39 36 198 193 211 207 206
220 359 210 213 169 213 212 206 227 134 152 229 151 268 245 155 159 133 61 31 349 317 300 149 150 152 156 184 158 184 164 162 171 177 135 150 193 205 227 203 198 205 179 211
185 172 205 187 192 203 97 86 173 197 199 257 196 251 350 139 149 95 79 45 9 322 323 133 137 144 155 161 161 178 182 181 173 161 161 171 260 253 265 256 144 193 224 230
54 39 145 152 64 32 130 144 105 95 247 252 238 189 298 122 82 87 84 66 35 358 329 104 115 128 144 145 128 127 57 302 167 158 170 190 211 258 304 302 269 235 230 282
152 89 54 144 94 67 232 156 155 190 178 238 87 112 117 106 88 105 105 83 86 39 56 84 83 82 84 96 92 86 149 293 293 231 209 206 219 203 287 307 317 357 351 342
196 158 166 182 6 185 204 252 256 257 164 131 189 228 142 113 117 103 100 109 92 78 64 75 102 123 155 159 176 193 216 214 229 258 347 81 94 101 352 350 356 345 317 286
192 92 72 19 12 353 150 212 1 343 295 338 183 91 101 138 139 128 109 101 100 97 92 84 72 70 61 54 40 30 28 35 28 8 14 342 334 166 209 267 316 281 289 284
311 115 24 101 276 92 19 342 118 232 239 223 240 143 143 160 150 135 127 122 119 118 106 93 79 71 77 72 64 56 30 35 49 30 24 36 356 341 325 314 285 291 281 268
306 199 132 159 211 147 148 213 243 327 255 11 336 69 113 160 153 148 135 140 134 115 109 110 116 124 126 115 100 59 48 29 17 39 20 0 332 332 346 311 281 270 286 297
87 304 131 86 53 10 333 295 190 170 208 219 126 194 347 107 134 131 133 121 111 109 102 102 138 124 83 65 64 65 67 80 29 105 294 282 295 310 307 302 313 322 314 313
349 274 121 154 150 62 259 202 299 34 68 274 30 174 88 104 120 123 132 142 138 145 154 152 57 50 40 25 358 355 359 292 183 132 353 325 325 325 310 330 328 320 316 308
326 311 354 50 56 78 179 193 192 197 177 242 216 146 158 166 167 152 147 147 153 151 151 91 57 26 20 5 1 1 350 4 33 18 355 313 290 306 335 318 312 314 305 299
356 313 13 84 40 351 8 160 187 222 244 261 270 41 170 187 185 181 166 165 170 156 155 76 49 14 353 356 350 349 358 4 2 356 314 293 339 331 317 306 298 295 294 292
118 334 326 241 134 256 269 249 249 226 245 286 309 317 60 47 88 109 136 152 161 164 77 56 29 357 348 343 347 1 335 6 13 341 334 334 320 304 304 304 302 302 294 300
186 232 276 108 191 288 268 265 216 212 211 325 251 109 109 83 115 128 163 122 130 88 67 37 355 346 348 352 358 341 342 352 342 321 315 312 304 318 315 309 302 300 297 293
253 260 31 269 341 252 135 35 343 164 131 168 122 141 71 81 111 94 74 76 83 78 47 9 357 353 345 336 343 347 357 332 319 319 309 303 333 322 309 305 301 294 295 297
334 293 153 128 232 318 156 199 149 168 179 192 218 131 154 80 50 104 84 68 76 68 45 11 9 336 322 318 301 13 340 315 308 299 304 338 322 306 305 297 291 293 301 305
284 323 75 118 122 229 122 134 95 62 269 339 153 148 157 129 204 148 103 94 84 57 34 12 353 320 332 332 348 347 313 307 292 312 330 316 309 296 290 288 293 288 296 311
171 160 195 218 203 286 115 132 95 126 223 159 142 149 159 129 122 125 96 90 74 61 23 355 327 326 310 325 339 300 286 286 300 336 324 308 292 286 287 293 293 343 326 313
165 149 201 226 149 268 127 99 198 178 53 107 55 77 90 116 116 118 117 106 80 43 8 344 352 336 322 307 289 278 281 288 323 321 305 292 287 306 306 303 347 336 316 307
234 198 186 157 216 147 181 86 65 63 133 119 121 99 119 128 132 121 110 71 56 27 357 354 330 301 309 319 328 322 290 315 318 312 300 292 305 300 310 8 340 317 305 307
242 116 194 48 201 177 192 203 140 138 73 108 117 128 127 126 124 143 108 56 7 353 319 289 292 306 307 311 301 279 290 323 340 309 302 304 302 316 2 350 313 305 306 308
104 124 199 242 244 145 229 205 168 144 115 113 112 125 119 122 143 105 58 16 339 315 299 319 312 298 292 320 326 326 338 0 321 309 306 304 312 329 335 315 298 306 304 306
175 191 170 219 211 163 69 163 135 127 144 140 134 126 127 129 98 76 358 335 304 321 329 303 292 318 326 322 317 319 328 338 339 313 304 301 325 340 328 310 311 311 317 320